{"data":{"norad_id":57756,"epoch":"2026-05-25T02:50:19.502592Z","epoch_age_seconds":71719,"freshness":"FRESH","line1":"1 57756U 23133A   26145.11828128  .00000113  00000+0  87833-4 0  9998","line2":"2 57756  81.0037  28.3489 0010808  59.3608 300.8613 13.86352563137928","mean_motion":13.86352563,"eccentricity":0.0010808,"inclination_deg":81.0037,"raan_deg":28.3489,"arg_perigee_deg":59.3608,"mean_anomaly_deg":300.8613,"bstar":8.7833e-5,"rev_number":13792,"period_min":103.86968210193,"perigee_km":933.53008564021,"apogee_km":949.35208563011,"semimajor_km":7319.5780856352,"source":"CELESTRAK","updated_at":"2026-05-25T13:38:00.234264Z"}}